Powrót do katalogu

STARLINK-11748

AktywnyŁącznośćVLEO
NORAD 64373·PAYLOAD·🇺🇸 United States

Wystrzelony Jun 13, 2025 z Cape Canaveral Space Force Station

Loading…

Następne Przeloty (najbliższe 24 godziny)

TLE

ŚwieżeSource: CelesTrak SupGP

Epoka: Sep 14, 2026, 22:35 UTC

1 64373C 25127D   26257.94145833  .00011810  00000+0  91662-4 0  2574
2 64373  43.0010  24.2343 0001796 269.2416  24.7477 15.70848937    18

Śledź STARLINK-11748 w czasie rzeczywistym z AllMySat

Download on the App Store